[[{"header":{"parameterUnit":"m.s-1","parameterCategory":1,"la1":30.2991,"la2":30.254,"lo1":-89.0895,"lo2":-89.0444,"dy":0.0017,"dx":0.0017,"nx":28,"ny":28,"refTime":"2023-08-24T03:00:00:Z","depth":0,"parameterNumber":2,"parameterNumberName":"U-component_of_WINDS"},"data":[0,0,0,0,0,0,0,0,0,0,0,0,0,0,0,0,0,0,0,0,0,0,0,0,0,0,0,0,0,0,0,0,0,0,0,0,0,0,0,0,0,0,0,0,0,0,0,0,0,0,0,0,0,0,0,0,0,0,-0.3887,-0.3888,0,-0.3935,-0.3936,-0.3937,-0.3943,-0.3943,-0.3943,-0.3942,-0.3993,-0.3995,-0.3997,0,0,0,0,0,0,0,0,0,0,0,0,0,-0.3802,-0.3804,-0.3887,-0.3888,-0.3888,-0.3935,-0.3936,-0.3937,-0.3944,-0.3943,-0.3942,-0.3942,-0.3993,-0.3995,-0.3997,0,0,0,0,0,0,0,0,0,0,0,0,0,-0.3844,-0.3804,-0.3887,-0.3897,-0.3899,-0.3935,-0.3936,-0.3937,-0.3944,-0.3943,-0.3942,-0.3942,-0.3992,-0.3994,-0.3997,-0.4027,0,0,-0.4005,-0.4006,0,0,0,0,0,0,0,0,-0.3841,-0.3847,-0.3895,-0.3897,-0.3898,-0.3933,-0.3925,-0.3967,-0.3944,-0.3927,-0.3942,-0.3941,-0.3974,-0.3978,-0.3988,-0.4029,-0.4032,-0.4005,-0.4007,-0.4008,-0.4009,0,0,0,0,0,0,0,-0.3838,-0.3845,-0.3906,-0.3896,-0.3898,-0.39,-0.3905,-0.3933,-0.3953,-0.3928,-0.3929,-0.3934,-0.3974,-0.3986,-0.399,-0.4032,-0.4005,-0.4008,-0.4009,-0.401,-0.41,-0.4101,0,0,0,0,0,0,-0.3833,-0.3842,-0.3905,-0.3908,-0.3868,-0.3902,-0.3908,-0.3922,-0.3953,-0.3957,-0.3935,-0.3934,-0.3982,-0.3986,-0.3991,-0.4029,-0.4008,-0.4011,-0.4012,-0.4099,-0.41,-0.4101,0,0,0,0,0,0,-0.3832,-0.3839,-0.3903,-0.3875,-0.3883,-0.3904,-0.3921,-0.3924,-0.3935,-0.3958,-0.3962,-0.3943,-0.3981,-0.3988,-0.4018,-0.403,-0.4012,-0.4014,-0.4098,-0.4099,-0.4101,-0.4103,0,0,0,0,0,0,-0.3829,-0.3838,-0.385,-0.3875,-0.3885,-0.3928,-0.3921,-0.3925,-0.3939,-0.3939,-0.3966,-0.397,-0.3981,-0.4014,-0.4021,-0.4034,-0.4016,-0.4097,-0.4099,-0.41,-0.4102,-0.4104,-0.4106,0,0,0,0,0,-0.3826,-0.3849,-0.385,-0.3858,-0.39,-0.3929,-0.3935,-0.3946,-0.394,-0.3952,-0.3967,-0.3969,-0.4028,-0.4017,-0.4024,-0.4039,-0.4097,-0.4098,-0.41,-0.4101,-0.4104,-0.4106,0,0,0,0,0,0,-0.3825,-0.3852,-0.3854,-0.3886,-0.3905,-0.393,-0.3945,-0.3949,-0.397,-0.3969,-0.3983,-0.3989,-0.4019,-0.4032,-0.4019,-0.4069,-0.4062,-0.4065,-0.406,-0.4063,-0.4065,-0.4061,-0.4019,0,0,0,0,0,-0.3828,-0.3849,-0.3872,-0.3898,-0.3907,-0.3925,-0.3938,-0.3945,-0.3966,-0.3974,-0.3991,-0.4011,-0.4034,-0.4049,-0.4071,-0.4103,-0.411,-0.4117,-0.4119,-0.412,-0.4123,-0.4142,-0.4145,-0.4107,-0.4107,-0.4107,0,0,-0.3836,-0.3853,-0.3866,-0.3898,-0.3914,-0.3936,-0.3932,-0.3955,-0.3972,-0.3978,-0.4007,-0.402,-0.4044,-0.4075,-0.409,-0.4087,-0.4135,-0.4123,-0.4124,-0.4126,-0.4144,-0.4147,-0.4151,-0.4108,-0.4108,-0.4108,0,0,-0.3861,-0.3876,-0.3899,-0.3914,-0.3937,-0.3949,-0.3954,-0.3978,-0.3987,-0.4017,-0.4022,-0.4042,-0.4081,-0.4097,-0.4111,-0.414,-0.4144,-0.4147,-0.4158,-0.4176,-0.4179,-0.4181,-0.4193,-0.4196,-0.415,-0.415,-0.415,0,-0.3867,-0.39,-0.3911,-0.3934,-0.3948,-0.3953,-0.3977,-0.3991,-0.4021,-0.4031,-0.4027,-0.4076,-0.4092,-0.4127,-0.4134,-0.4145,-0.4152,-0.4145,-0.4177,-0.418,-0.4183,-0.4194,-0.4198,-0.415,-0.415,-0.415,-0.415,0,-0.3907,-0.393,-0.3946,-0.3973,-0.3989,-0.4012,-0.4027,-0.4042,-0.4047,-0.4058,-0.4088,-0.4108,-0.4134,-0.4143,-0.4148,-0.4179,-0.4176,-0.4174,-0.4167,-0.4187,-0.4197,-0.4201,-0.4151,-0.415,-0.415,-0.415,0,0,-0.3934,-0.3966,-0.3972,-0.3985,-0.401,-0.4028,-0.4051,-0.4076,-0.4089,-0.4109,-0.4129,-0.4161,-0.416,-0.4175,-0.4182,-0.4197,-0.422,-0.4194,-0.4195,-0.4199,-0.4255,-0.4257,-0.4261,-0.4222,-0.4223,-0.4223,-0.4253,0,-0.3963,-0.4004,-0.4014,-0.405,-0.4071,-0.4075,-0.4096,-0.4114,-0.4125,-0.4145,-0.4157,-0.418,-0.4176,-0.4185,-0.42,-0.4214,-0.4232,-0.4212,-0.4242,-0.4242,-0.4237,-0.4267,-0.4269,-0.4296,-0.4257,-0.4258,-0.4258,0,-0.4002,-0.4022,-0.4059,-0.4082,-0.4091,-0.4109,-0.4132,-0.4151,-0.4171,-0.4178,-0.4195,-0.42,-0.4225,-0.4216,-0.425,-0.4236,-0.4249,-0.4257,-0.4259,-0.4263,-0.4252,-0.4273,-0.4305,-0.431,-0.4265,-0.4264,-0.4264,0,-0.4019,-0.4055,-0.4082,-0.4092,-0.4119,-0.4131,-0.4143,-0.4163,-0.4177,-0.4197,-0.4206,-0.4229,-0.4242,-0.426,-0.4272,-0.4264,-0.4306,-0.4297,-0.4313,-0.4312,-0.4322,-0.4322,-0.4359,-0.4329,-0.4329,-0.4328,-0.4328,0,-0.405,-0.4073,-0.409,-0.4107,-0.4133,-0.4143,-0.4169,-0.418,-0.4197,-0.4217,-0.4222,-0.424,-0.4254,-0.4274,-0.4284,-0.4311,-0.4317,-0.4323,-0.4326,-0.4323,-0.4323,-0.4333,-0.4332,-0.433,-0.4329,-0.4329,-0.4329,0,-0.4074,-0.4086,-0.4116,-0.4138,-0.4144,-0.4162,-0.4181,-0.4198,-0.4208,-0.4233,-0.4239,-0.4256,-0.428,-0.4293,-0.4323,-0.4329,-0.436,-0.4361,-0.4353,-0.4354,-0.4369,-0.4368,-0.4415,-0.4422,-0.4386,-0.4386,-0.4386,0,-0.4094,-0.4112,-0.4135,-0.4148,-0.416,-0.4181,-0.4195,-0.4206,-0.422,-0.4244,-0.4258,-0.4282,-0.4302,-0.4339,-0.4355,-0.4378,-0.438,-0.4394,-0.4383,-0.4381,-0.4381,-0.438,-0.4382,-0.4397,-0.4397,-0.4397,-0.4398,0,-0.4129,-0.4133,-0.4153,-0.4175,-0.4191,-0.4209,-0.4227,-0.4237,-0.4251,-0.4267,-0.4291,-0.4306,-0.4336,-0.436,-0.4384,-0.4397,-0.44,-0.4401,-0.4406,-0.4404,-0.4399,-0.4403,-0.4359,-0.44,-0.44,-0.44,-0.44,-0.4399,-0.4152,-0.4168,-0.4186,-0.4208,-0.4222,-0.4238,-0.4255,-0.4267,-0.4287,-0.4312,-0.4317,-0.4342,-0.4362,-0.4394,-0.4407,-0.4427,-0.4424,-0.4431,-0.4433,-0.4435,-0.4436,-0.4395,-0.4431,-0.4431,-0.4431,-0.4431,-0.4431,0,-0.4187,-0.4199,-0.4219,-0.4243,-0.426,-0.426,-0.4279,-0.4294,-0.4316,-0.4333,-0.4352,-0.438,-0.4403,-0.4419,-0.4442,-0.4455,-0.4457,-0.4461,-0.4461,-0.4464,-0.4437,-0.4431,-0.4459,-0.4459,-0.4459,-0.4459,-0.4459,-0.4459,-0.4208,-0.4235,-0.4241,-0.4275,-0.4287,-0.4311,-0.4322,-0.4337,-0.4351,-0.4381,-0.44,-0.441,-0.4427,-0.4451,-0.4472,-0.4477,-0.4485,-0.4489,-0.4494,-0.4469,-0.4466,-0.4463,-0.4457,-0.4491,-0.4491,-0.4519,-0.4519,-0.452]},{"header":{"parameterUnit":"m.s-1","parameterCategory":1,"la1":30.2991,"la2":30.254,"lo1":-89.0895,"lo2":-89.0444,"dy":0.0017,"dx":0.0017,"nx":28,"ny":28,"refTime":"2023-08-24T03:00:00:Z","depth":0,"parameterNumber":3,"parameterNumberName":"V-component_of_WINDS"},"data":[0,0,0,0,0,0,0,0,0,0,0,0,0,0,0,0,0,0,0,0,0,0,0,0,0,0,0,0,0,0,0,0,0,0,0,0,0,0,0,0,0,0,0,0,0,0,0,0,0,0,0,0,0,0,0,0,0,0,-1.4901,-1.4901,0,-1.4885,-1.4884,-1.4884,-1.4863,-1.4862,-1.4862,-1.4862,-1.4844,-1.4844,-1.4844,0,0,0,0,0,0,0,0,0,0,0,0,0,-1.4914,-1.4914,-1.4901,-1.4901,-1.4901,-1.4885,-1.4884,-1.4884,-1.4863,-1.4862,-1.4862,-1.4862,-1.4844,-1.4844,-1.4844,0,0,0,0,0,0,0,0,0,0,0,0,0,-1.4904,-1.4914,-1.4901,-1.4888,-1.4887,-1.4885,-1.4884,-1.4884,-1.4863,-1.4862,-1.4862,-1.4861,-1.4844,-1.4844,-1.4844,-1.4853,0,0,-1.4843,-1.4843,0,0,0,0,0,0,0,0,-1.4905,-1.4904,-1.489,-1.4889,-1.4888,-1.4875,-1.4882,-1.4874,-1.4863,-1.4872,-1.4862,-1.4861,-1.4855,-1.4854,-1.4852,-1.4852,-1.4851,-1.4843,-1.4843,-1.4843,-1.4843,0,0,0,0,0,0,0,-1.4905,-1.4904,-1.4895,-1.489,-1.4889,-1.4883,-1.4881,-1.4881,-1.4867,-1.4871,-1.487,-1.4868,-1.4854,-1.4852,-1.4851,-1.4851,-1.4843,-1.4843,-1.4843,-1.4843,-1.4857,-1.4858,0,0,0,0,0,0,-1.4908,-1.4905,-1.4895,-1.4894,-1.4895,-1.4883,-1.4881,-1.488,-1.4867,-1.4864,-1.4868,-1.4867,-1.4853,-1.4852,-1.4851,-1.486,-1.4843,-1.4843,-1.4843,-1.4857,-1.4857,-1.4858,0,0,0,0,0,0,-1.4908,-1.4907,-1.4896,-1.4899,-1.4897,-1.4884,-1.4882,-1.488,-1.4878,-1.4864,-1.4862,-1.4869,-1.4852,-1.4851,-1.4852,-1.4859,-1.4843,-1.4843,-1.4856,-1.4857,-1.4858,-1.4879,0,0,0,0,0,0,-1.4909,-1.4908,-1.4911,-1.4899,-1.4897,-1.4898,-1.4883,-1.488,-1.4877,-1.4875,-1.4864,-1.4862,-1.4852,-1.4853,-1.4852,-1.4858,-1.4842,-1.4855,-1.4856,-1.4857,-1.4877,-1.488,-1.4882,0,0,0,0,0,-1.4909,-1.4918,-1.4912,-1.491,-1.4901,-1.4899,-1.4897,-1.4886,-1.4878,-1.4881,-1.4873,-1.4862,-1.4858,-1.4853,-1.4852,-1.4858,-1.4855,-1.4856,-1.4857,-1.4876,-1.4879,-1.4882,0,0,0,0,0,0,-1.4931,-1.4916,-1.4909,-1.4914,-1.4908,-1.4895,-1.4899,-1.489,-1.4886,-1.4884,-1.4869,-1.4867,-1.487,-1.4864,-1.4859,-1.4866,-1.4855,-1.4856,-1.487,-1.4873,-1.4875,-1.4876,-1.4842,0,0,0,0,0,-1.4936,-1.4936,-1.4923,-1.4928,-1.4926,-1.4913,-1.4911,-1.4903,-1.4896,-1.4893,-1.4885,-1.4878,-1.4875,-1.4874,-1.487,-1.4876,-1.4873,-1.488,-1.4883,-1.4885,-1.4886,-1.4888,-1.489,-1.4862,-1.4862,-1.4862,0,0,-1.4947,-1.4939,-1.494,-1.4932,-1.4927,-1.4926,-1.4911,-1.4911,-1.491,-1.4893,-1.4894,-1.4887,-1.4879,-1.4883,-1.4884,-1.4878,-1.4893,-1.4886,-1.4888,-1.4888,-1.4889,-1.4892,-1.4894,-1.4862,-1.4862,-1.4862,0,0,-1.4967,-1.4961,-1.4965,-1.4959,-1.4951,-1.4942,-1.4943,-1.4931,-1.4926,-1.4927,-1.4914,-1.4913,-1.4908,-1.4903,-1.4899,-1.4916,-1.4906,-1.4915,-1.4929,-1.4931,-1.4933,-1.4935,-1.494,-1.4943,-1.4916,-1.4917,-1.4917,0,-1.4982,-1.498,-1.4968,-1.4968,-1.4965,-1.495,-1.4953,-1.4948,-1.4939,-1.4937,-1.4931,-1.4924,-1.4918,-1.4919,-1.4923,-1.4921,-1.4922,-1.4917,-1.4934,-1.4935,-1.4937,-1.4942,-1.4944,-1.4918,-1.4918,-1.4917,-1.4917,0,-1.4999,-1.4998,-1.5002,-1.4993,-1.4991,-1.4993,-1.498,-1.4979,-1.497,-1.4962,-1.4963,-1.4954,-1.4948,-1.4948,-1.494,-1.4948,-1.4945,-1.4936,-1.4925,-1.4941,-1.4946,-1.4947,-1.4919,-1.4919,-1.4919,-1.4918,0,0,-1.5032,-1.5016,-1.5017,-1.5013,-1.5002,-1.5001,-1.5002,-1.4997,-1.4996,-1.499,-1.499,-1.4986,-1.4978,-1.4974,-1.4965,-1.4967,-1.498,-1.4958,-1.4957,-1.4962,-1.4988,-1.4994,-1.4997,-1.4973,-1.4974,-1.4974,-1.4989,0,-1.5049,-1.505,-1.5039,-1.5043,-1.5042,-1.5026,-1.5027,-1.502,-1.5013,-1.501,-1.5002,-1.4999,-1.4989,-1.4986,-1.4987,-1.4978,-1.4985,-1.4977,-1.4973,-1.4973,-1.4975,-1.4999,-1.5006,-1.5021,-1.499,-1.4991,-1.4991,0,-1.507,-1.5065,-1.5069,-1.5057,-1.5056,-1.5057,-1.5051,-1.5049,-1.5041,-1.5035,-1.503,-1.502,-1.5019,-1.5009,-1.5008,-1.5002,-1.5,-1.4995,-1.4995,-1.4994,-1.4983,-1.4999,-1.5025,-1.5027,-1.4994,-1.4993,-1.4993,0,-1.5093,-1.5087,-1.5089,-1.5086,-1.5072,-1.5073,-1.5067,-1.5059,-1.5056,-1.505,-1.5048,-1.5042,-1.5039,-1.5035,-1.5023,-1.5016,-1.5023,-1.5011,-1.5018,-1.5018,-1.502,-1.502,-1.5046,-1.5019,-1.5019,-1.5019,-1.5019,0,-1.5113,-1.5116,-1.5099,-1.51,-1.5103,-1.5089,-1.5092,-1.5085,-1.5077,-1.5076,-1.5062,-1.5061,-1.5046,-1.5043,-1.5033,-1.5034,-1.5032,-1.5027,-1.5025,-1.5028,-1.5029,-1.5027,-1.5025,-1.5019,-1.5019,-1.5019,-1.5019,0,-1.514,-1.5128,-1.5129,-1.5116,-1.5113,-1.5115,-1.5104,-1.5104,-1.5095,-1.5094,-1.5093,-1.5079,-1.5075,-1.5063,-1.5056,-1.5049,-1.5052,-1.5047,-1.5055,-1.5053,-1.506,-1.506,-1.5085,-1.5088,-1.5059,-1.506,-1.506,0,-1.5154,-1.5156,-1.5143,-1.5141,-1.5136,-1.5134,-1.5131,-1.5117,-1.5114,-1.5105,-1.5106,-1.5101,-1.5096,-1.509,-1.5079,-1.5073,-1.5068,-1.5077,-1.5067,-1.5071,-1.5068,-1.5068,-1.5067,-1.508,-1.508,-1.508,-1.5081,0,-1.5179,-1.5173,-1.517,-1.5164,-1.5161,-1.5155,-1.5149,-1.5149,-1.5133,-1.5131,-1.5127,-1.5123,-1.5115,-1.511,-1.5103,-1.5096,-1.5086,-1.5084,-1.5085,-1.5089,-1.5093,-1.509,-1.5061,-1.5083,-1.5083,-1.5083,-1.5083,-1.5083,-1.5199,-1.52,-1.5191,-1.5187,-1.5181,-1.5176,-1.5175,-1.5166,-1.5162,-1.5155,-1.5147,-1.5144,-1.5135,-1.5123,-1.5118,-1.5114,-1.5109,-1.511,-1.5111,-1.5111,-1.5113,-1.5094,-1.5113,-1.5113,-1.5113,-1.5113,-1.5113,0,-1.5224,-1.5217,-1.5214,-1.5206,-1.5203,-1.5193,-1.5186,-1.5184,-1.5181,-1.5173,-1.5169,-1.5163,-1.5158,-1.5147,-1.514,-1.514,-1.5135,-1.5138,-1.5138,-1.5137,-1.5119,-1.5118,-1.5142,-1.5142,-1.5142,-1.5142,-1.5142,-1.5142,-1.5236,-1.5237,-1.523,-1.5227,-1.522,-1.5217,-1.5213,-1.5208,-1.5202,-1.5197,-1.5192,-1.5185,-1.5175,-1.5168,-1.5162,-1.5159,-1.5157,-1.5163,-1.5158,-1.5141,-1.5138,-1.5135,-1.5135,-1.5162,-1.5162,-1.5176,-1.5176,-1.5176]}]]